| time (UTC) | temp F | wind direction | speed MPH | gust MPH | rain 1hr in | rain 24hr in | rain mn in | humidity % | barometer mb |
| 20260508234514 | 77 | 334 | 7.0 | 13.0 | 0.00 | 0.00 | 0.00 | 22 | 1005.9 |
| 20260508233012 | 77 | 360 | 4.0 | 11.0 | 0.00 | 0.00 | 0.00 | 22 | 1005.8 |
| 20260508231503 | 77 | 360 | 7.0 | 13.0 | 0.00 | 0.00 | 0.00 | 23 | 1006.0 |
| 20260508230100 | 77 | 350 | 7.0 | 14.0 | 0.00 | 0.00 | 0.00 | 22 | 1006.0 |
| 20260508224547 | 76 | 321 | 8.0 | 17.0 | 0.00 | 0.00 | 0.00 | 24 | 1006.1 |
| 20260508223044 | 77 | 355 | 10.0 | 16.0 | 0.00 | 0.00 | 0.00 | 22 | 1006.5 |
| 20260508221537 | 77 | 351 | 9.0 | 16.0 | 0.00 | 0.00 | 0.00 | 22 | 1006.7 |
| 20260508220023 | 77 | 336 | 7.0 | 13.0 | 0.00 | 0.00 | 0.00 | 24 | 1006.9 |
| 20260508214515 | 76 | 325 | 11.0 | 20.0 | 0.00 | 0.00 | 0.00 | 22 | 1006.9 |
| 20260508213004 | 76 | 343 | 12.0 | 22.0 | 0.00 | 0.00 | 0.00 | 23 | 1007.1 |
| 20260508211557 | 75 | 9 | 9.0 | 19.0 | 0.00 | 0.00 | 0.00 | 25 | 1007.5 |
| 20260508210057 | 76 | 360 | 12.0 | 19.0 | 0.00 | 0.00 | 0.00 | 23 | 1007.5 |
| 20260508204542 | 76 | 351 | 11.0 | 17.0 | 0.00 | 0.00 | 0.00 | 24 | 1007.7 |
| 20260508203035 | 76 | 333 | 11.0 | 18.0 | 0.00 | 0.00 | 0.00 | 27 | 1007.9 |
| 20260508201525 | 75 | 333 | 10.0 | 20.0 | 0.00 | 0.00 | 0.00 | 25 | 1007.9 |
| 20260508200017 | 75 | 5 | 12.0 | 19.0 | 0.00 | 0.00 | 0.00 | 25 | 1008.0 |
| 20260508194516 | 74 | 350 | 12.0 | 21.0 | 0.00 | 0.00 | 0.00 | 26 | 1008.0 |
| 20260508191506 | 74 | 344 | 11.0 | 17.0 | 0.00 | 0.00 | 0.00 | 27 | 1008.4 |
| 20260508190005 | 74 | 333 | 12.0 | 18.0 | 0.00 | 0.00 | 0.00 | 27 | 1008.5 |
| 20260508184620 | 73 | 331 | 11.0 | 21.0 | 0.00 | 0.00 | 0.00 | 27 | 1008.7 |
| 20260508183044 | 73 | 330 | 11.0 | 18.0 | 0.00 | 0.00 | 0.00 | 29 | 1008.8 |
| 20260508181549 | 73 | 344 | 10.0 | 18.0 | 0.00 | 0.00 | 0.00 | 28 | 1009.0 |
| 20260508180033 | 72 | 327 | 12.0 | 21.0 | 0.00 | 0.00 | 0.00 | 26 | 1008.9 |
| 20260508174529 | 72 | 338 | 10.0 | 21.0 | 0.00 | 0.00 | 0.00 | 29 | 1009.0 |
| 20260508173025 | 71 | 326 | 9.0 | 20.0 | 0.00 | 0.00 | 0.00 | 28 | 1008.9 |
| 20260508171513 | 71 | 296 | 11.0 | 18.0 | 0.00 | 0.00 | 0.00 | 30 | 1008.8 |
| 20260508170002 | 70 | 340 | 8.0 | 16.0 | 0.00 | 0.00 | 0.00 | 36 | 1009.0 |
| 20260508164600 | 69 | 355 | 6.0 | 12.0 | 0.00 | 0.00 | 0.00 | 36 | 1009.0 |
| 20260508163047 | 67 | 26 | 3.0 | 8.0 | 0.00 | 0.00 | 0.00 | 42 | 1009.1 |
| 20260508161549 | 66 | 26 | 4.0 | 8.0 | 0.00 | 0.00 | 0.00 | 40 | 1009.0 |
| 20260508160032 | 65 | 348 | 7.0 | 10.0 | 0.00 | 0.00 | 0.00 | 44 | 1009.0 |
| 20260508154510 | 64 | 11 | 4.0 | 9.0 | 0.00 | 0.00 | 0.00 | 44 | 1008.9 |
| 20260508153004 | 62 | 45 | 1.0 | 6.0 | 0.00 | 0.00 | 0.00 | 45 | 1009.0 |
| 20260508151521 | 61 | 42 | 3.0 | 4.0 | 0.00 | 0.00 | 0.00 | 49 | 1008.8 |
| 20260508150011 | 59 | 338 | 0.0 | 4.0 | 0.00 | 0.00 | 0.00 | 48 | 1008.7 |
| 20260508144620 | 57 | 317 | 1.0 | 3.0 | 0.00 | 0.00 | 0.00 | 51 | 1008.7 |
| 20260508143045 | 56 | 287 | 1.0 | 3.0 | 0.00 | 0.00 | 0.00 | 54 | 1008.7 |
| 20260508141547 | 54 | 273 | 1.0 | 2.0 | 0.00 | 0.00 | 0.00 | 56 | 1008.7 |
| 20260508140008 | 52 | 273 | 0.0 | 2.0 | 0.00 | 0.00 | 0.00 | 62 | 1008.6 |
| 20260508134600 | 50 | 273 | 0.0 | 2.0 | 0.00 | 0.00 | 0.00 | 64 | 1008.6 |
| 20260508133110 | 49 | 273 | 0.0 | 0.0 | 0.00 | 0.00 | 0.00 | 63 | 1008.4 |
| 20260508131536 | 48 | 273 | 0.0 | 0.0 | 0.00 | 0.00 | 0.00 | 61 | 1008.2 |
| 20260508130027 | 48 | 273 | 0.0 | 3.0 | 0.00 | 0.00 | 0.00 | 60 | 1008.2 |
| 20260508124539 | 48 | 273 | 0.0 | 2.0 | 0.00 | 0.00 | 0.00 | 59 | 1008.0 |
| 20260508123029 | 48 | 273 | 0.0 | 3.0 | 0.00 | 0.00 | 0.00 | 58 | 1007.8 |
| 20260508121520 | 49 | 273 | 1.0 | 3.0 | 0.00 | 0.00 | 0.00 | 57 | 1007.7 |
| 20260508120017 | 50 | 273 | 2.0 | 3.0 | 0.00 | 0.00 | 0.00 | 56 | 1007.7 |
| 20260508114508 | 50 | 273 | 2.0 | 4.0 | 0.00 | 0.00 | 0.00 | 54 | 1007.6 |
| 20260508113109 | 51 | 273 | 2.0 | 6.0 | 0.00 | 0.00 | 0.00 | 53 | 1007.6 |
| 20260508111607 | 51 | 300 | 3.0 | 5.0 | 0.00 | 0.00 | 0.00 | 53 | 1007.5 |
| 20260508110055 | 51 | 312 | 3.0 | 6.0 | 0.00 | 0.00 | 0.00 | 52 | 1007.4 |
| 20260508104539 | 51 | 263 | 4.0 | 6.0 | 0.00 | 0.00 | 0.00 | 51 | 1007.3 |
| 20260508103029 | 52 | 261 | 2.0 | 4.0 | 0.00 | 0.00 | 0.00 | 49 | 1007.1 |
| 20260508101511 | 52 | 261 | 2.0 | 4.0 | 0.00 | 0.00 | 0.00 | 49 | 1007.1 |
| 20260508100003 | 52 | 261 | 5.0 | 7.0 | 0.00 | 0.00 | 0.00 | 49 | 1007.2 |
| 20260508094602 | 52 | 259 | 5.0 | 7.0 | 0.00 | 0.00 | 0.00 | 48 | 1007.1 |
| 20260508093058 | 53 | 261 | 3.0 | 7.0 | 0.00 | 0.00 | 0.00 | 47 | 1006.9 |
| 20260508091609 | 54 | 263 | 4.0 | 7.0 | 0.00 | 0.00 | 0.00 | 47 | 1007.0 |
| 20260508090110 | 54 | 262 | 5.0 | 7.0 | 0.00 | 0.00 | 0.00 | 47 | 1006.9 |
| 20260508084548 | 55 | 274 | 4.0 | 7.0 | 0.00 | 0.00 | 0.00 | 46 | 1007.1 |
| 20260508083047 | 55 | 268 | 3.0 | 7.0 | 0.00 | 0.00 | 0.00 | 46 | 1007.2 |
| 20260508081539 | 54 | 263 | 5.0 | 8.0 | 0.00 | 0.00 | 0.00 | 46 | 1007.2 |
| 20260508080042 | 54 | 258 | 6.0 | 9.0 | 0.00 | 0.00 | 0.00 | 45 | 1007.1 |
| 20260508074539 | 54 | 247 | 5.0 | 8.0 | 0.00 | 0.00 | 0.00 | 46 | 1007.1 |
| 20260508073018 | 54 | 247 | 4.0 | 7.0 | 0.00 | 0.00 | 0.00 | 46 | 1007.1 |
| 20260508071510 | 55 | 248 | 4.0 | 8.0 | 0.00 | 0.00 | 0.00 | 45 | 1007.1 |
| 20260508070059 | 56 | 252 | 3.0 | 5.0 | 0.00 | 0.00 | 0.00 | 45 | 1007.1 |
| 20260508064556 | 56 | 254 | 3.0 | 5.0 | 0.00 | 0.00 | 0.00 | 43 | 1007.2 |
| 20260508063056 | 57 | 252 | 3.0 | 7.0 | 0.00 | 0.00 | 0.00 | 43 | 1007.1 |
| 20260508061550 | 57 | 263 | 4.0 | 9.0 | 0.00 | 0.00 | 0.00 | 43 | 1007.2 |
| 20260508060036 | 57 | 327 | 2.0 | 8.0 | 0.00 | 0.00 | 0.00 | 42 | 1007.2 |
| 20260508054527 | 57 | 237 | 3.0 | 7.0 | 0.00 | 0.00 | 0.00 | 42 | 1007.2 |
| 20260508053122 | 57 | 232 | 2.0 | 4.0 | 0.00 | 0.00 | 0.00 | 42 | 1007.0 |
| 20260508051510 | 58 | 232 | 3.0 | 6.0 | 0.00 | 0.00 | 0.00 | 41 | 1006.9 |
| 20260508050004 | 58 | 232 | 2.0 | 5.0 | 0.00 | 0.00 | 0.00 | 41 | 1007.0 |
| 20260508044558 | 58 | 232 | 3.0 | 6.0 | 0.00 | 0.00 | 0.00 | 41 | 1006.9 |
| 20260508043103 | 58 | 227 | 3.0 | 6.0 | 0.00 | 0.00 | 0.00 | 43 | 1006.7 |
| 20260508041610 | 57 | 220 | 3.0 | 5.0 | 0.00 | 0.00 | 0.00 | 42 | 1006.8 |
| 20260508040043 | 57 | 236 | 2.0 | 5.0 | 0.00 | 0.00 | 0.00 | 43 | 1006.7 |
| 20260508034533 | 58 | 238 | 2.0 | 4.0 | 0.00 | 0.00 | 0.00 | 43 | 1006.7 |
| 20260508033026 | 59 | 238 | 1.0 | 4.0 | 0.00 | 0.00 | 0.00 | 44 | 1006.5 |
| 20260508031535 | 60 | 238 | 2.0 | 7.0 | 0.00 | 0.00 | 0.00 | 42 | 1006.3 |
| 20260508030035 | 61 | 262 | 3.0 | 6.0 | 0.00 | 0.00 | 0.00 | 41 | 1006.2 |
| 20260508024522 | 64 | 266 | 0.0 | 4.0 | 0.00 | 0.00 | 0.00 | 39 | 1006.1 |
| 20260508023022 | 66 | 336 | 1.0 | 2.0 | 0.00 | 0.00 | 0.00 | 35 | 1006.0 |
| 20260508021514 | 68 | 336 | 0.0 | 2.0 | 0.00 | 0.00 | 0.00 | 34 | 1006.0 |
| 20260508020020 | 70 | 336 | 2.0 | 5.0 | 0.00 | 0.00 | 0.00 | 30 | 1006.0 |
| 20260508014506 | 72 | 336 | 3.0 | 6.0 | 0.00 | 0.00 | 0.00 | 26 | 1005.9 |
| 20260508013059 | 73 | 336 | 0.0 | 4.0 | 0.00 | 0.00 | 0.00 | 26 | 1005.9 |
| 20260508011556 | 73 | 330 | 2.0 | 6.0 | 0.00 | 0.00 | 0.00 | 25 | 1006.0 |
| 20260508010049 | 72 | 25 | 2.0 | 5.0 | 0.00 | 0.00 | 0.00 | 28 | 1006.0 |
| 20260508004510 | 72 | 302 | 0.0 | 6.0 | 0.00 | 0.00 | 0.00 | 27 | 1006.2 |
| 20260508003009 | 72 | 267 | 3.0 | 8.0 | 0.00 | 0.00 | 0.00 | 25 | 1006.5 |
| 20260508001559 | 74 | 287 | 2.0 | 9.0 | 0.00 | 0.00 | 0.00 | 26 | 1006.7 |
| 20260508000059 | 74 | 270 | 2.0 | 6.0 | 0.00 | 0.00 | 0.00 | 24 | 1007.0 |